TimeNZST,TemperatureF,Dew PointF,Humidity,Sea Level PressureIn,VisibilityMPH,Wind Direction,Wind SpeedMPH,Gust SpeedMPH,PrecipitationIn,Events,Conditions,WindDirDegrees,DateUTC
12:00 AM,53.6,51.8,94,29.71,6.2,WSW,3.5,-,N/A,,Light Drizzle,250,2013-04-17 12:00:00
1:00 AM,53.6,51.8,94,29.71,6.2,West,4.6,-,N/A,,Light Drizzle,270,2013-04-17 13:00:00
2:00 AM,53.6,51.8,94,29.71,6.2,West,5.8,-,N/A,,Light Drizzle,270,2013-04-17 14:00:00
3:00 AM,55.4,51.8,88,29.74,6.2,WSW,5.8,-,N/A,,Mostly Cloudy,250,2013-04-17 15:00:00
4:00 AM,53.6,51.8,94,29.74,6.2,SW,4.6,-,N/A,Rain,Light Rain,220,2013-04-17 16:00:00
5:00 AM,53.6,51.8,94,29.77,6.2,WSW,5.8,-,N/A,Rain,Light Rain,240,2013-04-17 17:00:00
6:00 AM,53.6,51.8,94,29.77,6.2,SSW,8.1,-,N/A,,Mostly Cloudy,210,2013-04-17 18:00:00
7:00 AM,53.6,51.8,94,29.80,6.2,SSW,11.5,-,N/A,,Mostly Cloudy,200,2013-04-17 19:00:00
8:00 AM,53.6,50.0,88,29.83,6.2,SSW,9.2,-,N/A,,Mostly Cloudy,210,2013-04-17 20:00:00
9:00 AM,53.6,50.0,88,29.83,6.2,SSW,11.5,-,N/A,,Mostly Cloudy,210,2013-04-17 21:00:00
10:00 AM,55.4,50.0,82,29.86,6.2,South,13.8,-,N/A,,Mostly Cloudy,190,2013-04-17 22:00:00
11:00 AM,55.4,50.0,82,29.86,6.2,South,16.1,-,N/A,,Mostly Cloudy,190,2013-04-17 23:00:00
12:00 PM,55.4,48.2,77,29.86,6.2,SSW,12.7,-,N/A,,Mostly Cloudy,200,2013-04-18 00:00:00
1:00 PM,55.4,50.0,82,29.86,6.2,SSW,12.7,-,N/A,,Mostly Cloudy,200,2013-04-18 01:00:00
2:00 PM,55.4,48.2,77,29.86,6.2,SSW,11.5,-,N/A,,Mostly Cloudy,200,2013-04-18 02:00:00
3:00 PM,55.4,48.2,77,29.86,6.2,South,10.4,-,N/A,,Mostly Cloudy,190,2013-04-18 03:00:00
4:00 PM,55.4,48.2,77,29.86,6.2,South,9.2,-,N/A,,Mostly Cloudy,190,2013-04-18 04:00:00
5:00 PM,55.4,48.2,77,29.86,6.2,South,9.2,-,N/A,,Mostly Cloudy,180,2013-04-18 05:00:00
6:00 PM,53.6,48.2,82,29.86,6.2,South,9.2,-,N/A,,Mostly Cloudy,180,2013-04-18 06:00:00
7:00 PM,53.6,48.2,82,29.89,6.2,South,4.6,-,N/A,,Mostly Cloudy,180,2013-04-18 07:00:00
8:00 PM,51.8,46.4,82,29.89,6.2,SSW,5.8,-,N/A,,Mostly Cloudy,210,2013-04-18 08:00:00
9:00 PM,50.0,46.4,87,29.92,6.2,SSW,4.6,-,N/A,,Mostly Cloudy,210,2013-04-18 09:00:00
10:00 PM,48.2,46.4,93,29.92,6.2,WSW,2.3,-,N/A,,Scattered Clouds,240,2013-04-18 10:00:00
11:00 PM,48.2,46.4,93,29.92,6.2,West,4.6,-,N/A,,Scattered Clouds,260,2013-04-18 11:00:00